User: anonymous   Login
Location: Pensacola
(30.4142°N, 87.2155°W)
Time: 18:27:29
(UTC-05:00)
Language:

UNISAT 6 - Orbit

View from above orbital plane
View from above orbital plane
View from above satellite
View from above satellite

Ground track
Ground track

The orbit data is extracted from the following two-line orbital elements,

1 40012U 14033C   23157.55643003  .00002587  00000-0  36635-3 0  9990
2 40012  97.6722 332.1336 0057105  90.9536 269.8218 14.76747362482202
Epoch (UTC): 06 June 2023 13:21:15
Eccentricity: 0.0057105
inclination: 97.6722°
perigee height: 599 km
apogee height: 679 km
right ascension of ascending node: 332.1336°
argument of perigee: 90.9536°
revolutions per day: 14.76747362
mean anomaly at epoch: 269.8218°
orbit number at epoch: 48220

The dashed part of the orbit path shows where the satellite is in the earth's shadow,  

DLR